Back to catalog

STARLINK-32870

AliveCommunicationsVLEO
NORAD 63018·PAYLOAD·🇺🇸 United States

Launched Feb 15, 2025 from Cape Canaveral Space Force Station

Loading…

Next Passes (next 24 hours)

TLE

FreshSource: CelesTrak SupGP

Epoch: Sep 14, 2026, 15:13 UTC

1 63018C 25032P   26257.63451389  .00159200  00000+0  57768-2 0  2579
2 63018  43.0026 349.0664 0001197 275.1905 162.5876 15.27440326    14

Track STARLINK-32870 in real time with AllMySat

Download on the App Store